Creek Data

    Home     View Charts     View Raw Data     Messages

ID Distance Battery Voltage Battery Current Internal Temp Internal Humidity External Temp Solar Input rssi snr Time Stamp Record
32988 14.0 3.78 -5 38 38 40 0 -77 8 02/21/2025 04:15 AM 14666
32987 14.0 3.78 -5 39 37 40 0 -77 9 02/21/2025 04:00 AM 14665
32986 14.0 3.78 -5 38 38 41 0 -78 8 02/21/2025 03:45 AM 14664
32985 14.0 3.83 -5 38 37 40 0 -77 8 02/21/2025 03:30 AM 14663
32984 14.0 3.83 -5 39 38 41 0 -77 8 02/21/2025 03:15 AM 14662
32983 13.9 3.78 -5 38 38 40 0 -77 8 02/21/2025 03:00 AM 14661
32982 14.0 3.78 -5 38 38 39 0.1 -77 8 02/21/2025 02:45 AM 14660
32981 14.0 3.78 -5 39 38 40 0 -78 8 02/21/2025 02:30 AM 14659
32980 13.9 3.84 -5 40 38 42 0 -77 8 02/21/2025 02:15 AM 14658
32979 13.9 3.79 -5 40 38 42 0 -78 7 02/21/2025 02:00 AM 14657
32978 14.0 3.79 -5 41 38 43 0 -77 8 02/21/2025 01:45 AM 14656
32977 14.0 3.79 -5 43 37 44 0 -77 8 02/21/2025 01:30 AM 14655
32976 13.9 3.79 -5 44 36 47 0 -78 8 02/21/2025 01:15 AM 14654
32975 13.9 3.79 -5 45 36 48 0 -77 7 02/21/2025 01:00 AM 14653
32974 13.9 3.79 -5 42 37 49 0 -77 8 02/21/2025 12:45 AM 14652
32973 14.0 3.79 -5 41 37 47 0.1 -76 8 02/21/2025 12:30 AM 14651
32972 13.9 3.84 -5 40 38 43 0 -77 8 02/21/2025 12:15 AM 14650
32971 13.9 3.84 -5 41 37 42 0 -78 8 02/21/2025 12:00 AM 14649
32970 13.9 3.79 -5 42 37 43 0 -78 8 02/20/2025 11:45 PM 14648
32969 13.9 3.79 -5 41 38 44 0 -78 8 02/20/2025 11:30 PM 14647
32968 13.9 3.84 -5 41 38 42 0 -77 8 02/20/2025 11:15 PM 14646
32967 13.9 3.79 -5 43 38 44 0.1 -78 7 02/20/2025 11:00 PM 14645
32966 13.9 3.79 -5 43 38 48 0 -77 8 02/20/2025 10:45 PM 14644
32965 13.9 3.79 -5 43 38 45 0 -77 8 02/20/2025 10:30 PM 14643
32964 13.9 3.85 -5 44 38 45 0 -78 8 02/20/2025 10:15 PM 14642